New Philadelphia, OH

5:36 PM EST on December 17, 2017 (GMT -0500)
Clever

Weather History for KPHD - November, 2014

Change the Weather History Date:

Sunday, November 23, 2014

  Actual Average Record
Temperature  
Mean Temperature 54 °F 40 °F  
Max Temperature 64 °F 50 °F 71 °F (1999)
Min Temperature 43 °F 32 °F 11 °F (2008)
Degree Days  
Heating Degree Days 11 25  
Month to date heating degree days 617 477  
Since 1 July heating degree days 1064 976  
Cooling Degree Days 0 0  
Month to date cooling degree days 0 0  
Year to date cooling degree days 630 697  
Growing Degree Days 4 (Base 50)    
Moisture  
Dew Point 41 °F    
Average Humidity 67    
Maximum Humidity 89    
Minimum Humidity 44    
Precipitation  
Precipitation 0.33 in 0.12 in 0.57 in (1990)
Month to date precipitation 1.71 2.45  
Year to date precipitation 37.03 35.41  
Sea Level Pressure  
Sea Level Pressure 29.83 in    
Wind  
Wind Speed 8 mph (SE)    
Max Wind Speed 15 mph    
Max Gust Speed 21 mph    
Visibility 9 miles    
Events Rain    
T = Trace of Precipitation, MM = Missing Value Source: NWS Daily Summary

Daily Weather History Graph

Daily Weather History Graph

Search for Another Location

Airport or City:

Trip Planner

Search our weather history database for the weather conditions in past years. The results will help you decide how hot, cold, wet, or windy it might be!

Date:

Astronomy

Nov. 23, 2014 Rise Set
Actual Time 7:21 AM EST 5:02 PM EST
Civil Twilight 6:51 AM EST 5:32 PM EST
Nautical Twilight 6:17 AM EST 6:06 PM EST
Astronomical Twilight 5:45 AM EST 6:38 PM EST
Moon 8:15 AM EST (11/23) 6:24 PM EST (11/23)
Length of Visible Light 10h 41m
Length of Day
9h 41m
New Moon, 2% of the Moon is Illuminated
Nov 23
New Moon
Nov 29
First Quarter
Dec 6
Full
Dec 14
Last Quarter
Dec 21
New

Hourly Weather History & Observations

Time (EST) Temp. Windchill Dew Point Humidity Pressure Visibility Wind Dir Wind Speed Gust Speed Precip Events Conditions
12:53 AM 46.9 °F - 32.0 °F 56% 30.11 in 10.0 mi Variable 3.5 mph - N/A   Overcast
1:53 AM 46.9 °F - 32.0 °F 56% 30.10 in 10.0 mi SSE 3.5 mph - N/A   Overcast
2:53 AM 46.0 °F 43.9 °F 34.0 °F 63% 30.11 in 10.0 mi ESE 4.6 mph - 0.01 in Rain Light Rain
3:53 AM 46.0 °F 43.9 °F 34.0 °F 63% 30.09 in 10.0 mi SE 4.6 mph - 0.00 in   Overcast
4:53 AM 46.9 °F - 33.1 °F 59% 30.09 in 10.0 mi SE 5.8 mph - N/A   Overcast
5:53 AM 45.0 °F - 35.1 °F 68% 30.09 in 10.0 mi Calm Calm - N/A   Overcast
6:53 AM 46.0 °F 43.9 °F 32.0 °F 58% 30.09 in 10.0 mi SE 4.6 mph - 0.00 in   Overcast
7:53 AM 46.9 °F - 30.9 °F 54% 30.07 in 10.0 mi SE 4.6 mph - N/A   Overcast
8:53 AM 48.9 °F - 32.0 °F 52% 30.08 in 10.0 mi SE 4.6 mph - N/A   Overcast
9:53 AM 52.0 °F - 33.1 °F 49% 30.06 in 10.0 mi SE 4.6 mph - N/A   Mostly Cloudy
10:53 AM 54.0 °F - 35.1 °F 49% 30.03 in 10.0 mi SE 4.6 mph - N/A   Scattered Clouds
11:53 AM 59.0 °F - 37.9 °F 46% 29.98 in 10.0 mi Variable 5.8 mph - N/A   Partly Cloudy
12:53 PM 62.1 °F - 41.0 °F 46% 29.94 in 10.0 mi SSE 6.9 mph - N/A   Mostly Cloudy
1:53 PM 64.0 °F - 43.0 °F 46% 29.89 in 10.0 mi SE 10.4 mph - N/A   Mostly Cloudy
2:53 PM 64.0 °F - 44.1 °F 48% 29.83 in 10.0 mi SE 10.4 mph - N/A   Partly Cloudy
3:53 PM 63.0 °F - 43.0 °F 48% 29.79 in 10.0 mi ESE 6.9 mph - N/A   Clear
4:53 PM 62.1 °F - 44.1 °F 52% 29.75 in 10.0 mi SE 12.7 mph - N/A   Clear
5:53 PM 61.0 °F - 46.0 °F 58% 29.72 in 10.0 mi SSE 10.4 mph - N/A   Partly Cloudy
6:53 PM 60.1 °F - 46.9 °F 62% 29.67 in 10.0 mi SE 11.5 mph - 0.00 in Rain Light Rain
7:53 PM 57.0 °F - 48.0 °F 72% 29.65 in 9.0 mi SE 6.9 mph - 0.02 in Rain Light Rain
8:53 PM 54.0 °F - 48.0 °F 80% 29.60 in 7.0 mi SE 10.4 mph - 0.05 in Rain Light Rain
9:53 PM 53.1 °F - 48.0 °F 83% 29.52 in 7.0 mi SE 13.8 mph - 0.07 in Rain Light Rain
10:53 PM 53.1 °F - 50.0 °F 89% 29.45 in 5.0 mi SE 10.4 mph 20.7 mph 0.13 in Rain Light Rain
11:10 PM 53.1 °F - 50.0 °F 89% 29.44 in 7.0 mi SSE 8.1 mph - 0.01 in Rain Light Rain
11:22 PM 53.1 °F - 51.1 °F 93% 29.43 in 7.0 mi SSE 5.8 mph - 0.02 in Rain Light Rain
11:40 PM 54.0 °F - 51.1 °F 90% 29.42 in 4.0 mi South 8.1 mph - 0.04 in Rain Light Rain
11:53 PM 54.0 °F - 52.0 °F 93% 29.41 in 5.0 mi SE 12.7 mph - 0.05 in Rain Light Rain